Weather History for Laurinburg-Maxton, NC

Change the Weather History Date:

Monday, November 12, 2012

  Actual Average (KLBT) Record (KLBT)
Temperature  
Mean Temperature 63 °F 55 °F  
Max Temperature 75 °F 69 °F 81 °F (2014)
Min Temperature 51 °F 42 °F 29 °F (2011)
Degree Days  
Heating Degree Days 2 10  
Month to date heating degree days 106  
Since 1 July heating degree days 238  
Cooling Degree Days 0 0  
Month to date cooling degree days 10  
Year to date cooling degree days 1904  
Growing Degree Days 13 (Base 50)    
Moisture  
Dew Point 56 °F    
Average Humidity 80    
Maximum Humidity 100    
Minimum Humidity 54    
Precipitation  
Precipitation 0.00 in 0.09 in 1.28 in (2002)
Month to date precipitation 1.07  
Year to date precipitation 38.83  
Sea Level Pressure  
Sea Level Pressure 30.30 in    
Wind  
Wind Speed 4 mph (SSE)    
Max Wind Speed 10 mph    
Max Gust Speed -    
Visibility 8 miles    
Events      
T = Trace of Precipitation, MM = Missing Value Source: NWS Daily Summary

Daily Weather History Graph

Daily Weather History Graph

Search for Another Location

Airport:

Trip Planner

Search our weather history database for the weather conditions in past years. The results will help you decide how hot, cold, wet, or windy it might be!

Date:

Astronomy

Nov. 12, 2012 Rise Set
Actual Time 6:49 AM EST 5:13 PM EST
Civil Twilight 6:22 AM EST 5:40 PM EST
Nautical Twilight 5:51 AM EST 6:10 PM EST
Astronomical Twilight 5:22 AM EST 6:40 PM EST
Moon 5:14 AM EST (11/12) 4:16 PM EST (11/12)
Length of Visible Light 11h 18m
Length of Day
10h 24m
Waning Crescent, 2% of the Moon is Illuminated
Nov 12
Waning Crescent
Nov 13
New
Nov 20
First Quarter
Nov 28
Full
Dec 6
Last Quarter

Hourly Weather History & Observations

Time (EST) Temp. Dew Point Humidity Pressure Visibility Wind Dir Wind Speed Gust Speed Precip Events Conditions
12:52 AM 53.1 °F 52.0 °F 96% 30.41 in 6.0 mi ESE 3.5 mph - N/A   Clear
1:52 AM 53.1 °F 52.0 °F 96% 30.39 in 7.0 mi East 3.5 mph - N/A   Clear
2:52 AM 52.0 °F 52.0 °F 100% 30.39 in 6.0 mi Calm Calm - N/A   Clear
3:52 AM 52.0 °F 51.1 °F 97% 30.38 in 5.0 mi Calm Calm - N/A   Clear
4:52 AM 51.1 °F 50.0 °F 96% 30.37 in 5.0 mi Calm Calm - N/A   Clear
5:52 AM 54.0 °F 52.0 °F 93% 30.36 in 6.0 mi Calm Calm - N/A   Clear
7:27 AM 51.8 °F 51.8 °F 100% 30.37 in 2.5 mi NE 3.5 mph - N/A   Clear
7:39 AM 53.6 °F 53.6 °F 100% 30.37 in 3.0 mi ENE 3.5 mph - N/A   Clear
7:52 AM 55.9 °F 55.0 °F 97% 30.36 in 4.0 mi Variable 3.5 mph - N/A   Clear
8:52 AM 64.0 °F 57.9 °F 80% 30.36 in 10.0 mi ESE 5.8 mph - N/A   Mostly Cloudy
9:52 AM 71.1 °F 57.9 °F 63% 30.36 in 10.0 mi South 9.2 mph - N/A   Mostly Cloudy
10:52 AM 73.0 °F 59.0 °F 61% 30.35 in 10.0 mi South 8.1 mph - N/A   Partly Cloudy
11:52 AM 73.9 °F 57.9 °F 57% 30.33 in 10.0 mi South 10.4 mph - N/A   Clear
12:52 PM 75.0 °F 57.9 °F 55% 30.30 in 10.0 mi South 10.4 mph - N/A   Partly Cloudy
1:52 PM 75.9 °F 57.9 °F 54% 30.27 in 10.0 mi South 6.9 mph - N/A   Scattered Clouds
2:52 PM 75.0 °F 57.9 °F 55% 30.25 in 10.0 mi SSW 5.8 mph - N/A   Scattered Clouds
3:52 PM 73.9 °F 57.9 °F 57% 30.24 in 10.0 mi SSE 3.5 mph - N/A   Mostly Cloudy
4:52 PM 70.0 °F 57.9 °F 65% 30.22 in 10.0 mi SE 4.6 mph - N/A   Partly Cloudy
5:52 PM 66.9 °F 57.9 °F 73% 30.22 in 10.0 mi SSE 5.8 mph - N/A   Clear
6:52 PM 68.0 °F 59.0 °F 73% 30.23 in 10.0 mi South 5.8 mph - N/A   Clear
7:52 PM 66.0 °F 59.0 °F 78% 30.23 in 10.0 mi South 5.8 mph - N/A   Clear
8:52 PM 64.9 °F 60.1 °F 84% 30.22 in 10.0 mi SSE 8.1 mph - N/A   Clear
9:52 PM 66.0 °F 60.1 °F 81% 30.20 in 10.0 mi South 6.9 mph - N/A   Clear
10:52 PM 63.0 °F 60.1 °F 90% 30.21 in 10.0 mi SSE 5.8 mph - N/A   Clear
11:52 PM 64.0 °F 60.1 °F 87% 30.20 in 10.0 mi Calm Calm - N/A   Overcast